Location: Mococo
(38.0255°N, 122.1161°W)
Time: 03:11:02
(UTC+00:00)

Cosmos 2221 Rocket - Pass Details

Date: 13 February 2026
Orbit: 615 x 641 km, 82.5° (Epoch: 13 March)

Event Time Altitude Azimuth Distance (km) Brightness Sun altitude
Rises 13:46:08 0° 349° (N) 2,955 6.9 -15.2°
Reaches altitude 10° 13:48:24 10° 347° (NNW) 2,040 6.0 -14.8°
Maximum altitude 13:52:54 67° 265° (W) 695 3.5 -13.9°
Drops below altitude 10° 13:57:20 10° 183° (S) 2,016 6.2 -13.0°
Sets 13:59:34 0° 181° (S) 2,917 7.1 -12.6°
